Year,Month,Day,Hour,Minute,Value (Times are PST for temperature in C)
2010,06,04,00,00,8.20
2010,06,04,00,01,8.20
2010,06,04,00,02,8.20
2010,06,04,00,03,8.20
2010,06,04,00,04,8.20
2010,06,04,00,05,8.20
2010,06,04,00,06,8.20
2010,06,04,00,07,8.20
2010,06,04,00,08,8.20
2010,06,04,00,09,8.20
2010,06,04,00,10,8.10
2010,06,04,00,11,8.10
2010,06,04,00,12,8.10
2010,06,04,00,13,8.10
2010,06,04,00,14,8.10
2010,06,04,00,15,8.10
2010,06,04,00,16,8.10
2010,06,04,00,17,8.10
2010,06,04,00,18,8.10
2010,06,04,00,19,8.10
2010,06,04,00,20,8.10
2010,06,04,00,21,8.10
2010,06,04,00,22,8.10
2010,06,04,00,23,8.10
2010,06,04,00,24,8.10
2010,06,04,00,25,8.10
2010,06,04,00,26,8.10
2010,06,04,00,27,8.10
2010,06,04,00,28,8.10
2010,06,04,00,29,8.10
2010,06,04,00,30,8.10
2010,06,04,00,31,8.10
2010,06,04,00,32,8.10
2010,06,04,00,33,8.10
2010,06,04,00,34,8.10
2010,06,04,00,35,8.10
2010,06,04,00,36,8.10
2010,06,04,00,37,8.10
2010,06,04,00,38,8.10
2010,06,04,00,39,8.10
2010,06,04,00,40,8.10
2010,06,04,00,41,8.10
2010,06,04,00,42,8.10
2010,06,04,00,43,8.10
2010,06,04,00,44,8.10
2010,06,04,00,45,8.10
2010,06,04,00,46,8.10
2010,06,04,00,47,8.10
2010,06,04,00,48,8.10
2010,06,04,00,49,8.10
2010,06,04,00,50,8.10
2010,06,04,00,51,8.10
2010,06,04,00,52,8.10
2010,06,04,00,53,8.10
2010,06,04,00,54,8.10
2010,06,04,00,55,8.10
2010,06,04,00,56,8.10
2010,06,04,00,57,8.10
2010,06,04,00,58,8.10
2010,06,04,00,59,8.10
2010,06,04,01,00,8.10
2010,06,04,01,01,8.10
2010,06,04,01,02,8.10
2010,06,04,01,03,8.10
2010,06,04,01,04,8.10
2010,06,04,01,05,8.10
2010,06,04,01,06,8.10
2010,06,04,01,07,8.10
2010,06,04,01,08,8.10
2010,06,04,01,09,8.10
2010,06,04,01,10,8.10
2010,06,04,01,11,8.10
2010,06,04,01,12,8.10
2010,06,04,01,13,8.10
2010,06,04,01,14,8.10
2010,06,04,01,15,8.10
2010,06,04,01,16,8.10
2010,06,04,01,17,8.10
2010,06,04,01,18,8.10
2010,06,04,01,19,8.10
2010,06,04,01,20,8.10
2010,06,04,01,21,8.10
2010,06,04,01,22,8.10
2010,06,04,01,23,8.10
2010,06,04,01,24,8.10
2010,06,04,01,25,8.10
2010,06,04,01,26,8.10
2010,06,04,01,27,8.10
2010,06,04,01,28,8.10
2010,06,04,01,29,8.10
2010,06,04,01,30,8.10
2010,06,04,01,31,8.10
2010,06,04,01,32,8.10
2010,06,04,01,33,8.10
2010,06,04,01,34,8.10
2010,06,04,01,35,8.10
2010,06,04,01,36,8.10
2010,06,04,01,37,8.00
2010,06,04,01,38,8.00
2010,06,04,01,39,8.00
2010,06,04,01,40,8.00
2010,06,04,01,41,8.00
2010,06,04,01,42,8.00
2010,06,04,01,43,8.10
2010,06,04,01,44,8.10
2010,06,04,01,45,8.10
2010,06,04,01,46,8.10
2010,06,04,01,47,8.10
2010,06,04,01,48,8.10
2010,06,04,01,49,8.10
2010,06,04,01,50,8.10
2010,06,04,01,51,8.10
2010,06,04,01,52,8.10
2010,06,04,01,53,8.10
2010,06,04,01,54,8.10
2010,06,04,01,55,8.10
2010,06,04,01,56,8.10
2010,06,04,01,57,8.10
2010,06,04,01,58,8.10
2010,06,04,01,59,8.10
2010,06,04,02,00,8.10
2010,06,04,02,01,8.10
2010,06,04,02,02,8.10
2010,06,04,02,03,8.10
2010,06,04,02,04,8.10
2010,06,04,02,05,8.10
2010,06,04,02,06,8.10
2010,06,04,02,07,8.10
2010,06,04,02,08,8.10
2010,06,04,02,09,8.10
2010,06,04,02,10,8.10
2010,06,04,02,11,8.10
2010,06,04,02,12,8.00
2010,06,04,02,13,8.00
2010,06,04,02,14,8.00
2010,06,04,02,15,8.00
2010,06,04,02,16,8.00
2010,06,04,02,17,8.00
2010,06,04,02,18,8.00
2010,06,04,02,19,8.00
2010,06,04,02,20,8.00
2010,06,04,02,21,8.00
2010,06,04,02,22,8.00
2010,06,04,02,23,8.00
2010,06,04,02,24,8.10
2010,06,04,02,25,8.10
2010,06,04,02,26,8.00
2010,06,04,02,27,8.10
2010,06,04,02,28,8.10
2010,06,04,02,29,8.10
2010,06,04,02,30,8.10
2010,06,04,02,31,8.10
2010,06,04,02,32,8.10
2010,06,04,02,33,8.10
2010,06,04,02,34,8.10
2010,06,04,02,35,8.10
2010,06,04,02,36,8.10
2010,06,04,02,37,8.10
2010,06,04,02,38,8.10
2010,06,04,02,39,8.10
2010,06,04,02,40,8.10
2010,06,04,02,41,8.10
2010,06,04,02,42,8.10
2010,06,04,02,43,8.10
2010,06,04,02,44,8.10
2010,06,04,02,45,8.10
2010,06,04,02,46,8.10
2010,06,04,02,47,8.10
2010,06,04,02,48,8.10
2010,06,04,02,49,8.10
2010,06,04,02,50,8.10
2010,06,04,02,51,8.10
2010,06,04,02,52,8.10
2010,06,04,02,53,8.10
2010,06,04,02,54,8.10
2010,06,04,02,55,8.10
2010,06,04,02,56,8.10
2010,06,04,02,57,8.10
2010,06,04,02,58,8.10
2010,06,04,02,59,8.10
2010,06,04,03,00,8.10
2010,06,04,03,01,8.10
2010,06,04,03,02,8.10
2010,06,04,03,03,8.10
2010,06,04,03,04,8.10
2010,06,04,03,05,8.10
2010,06,04,03,06,8.10
2010,06,04,03,07,8.10
2010,06,04,03,08,8.10
2010,06,04,03,09,8.10
2010,06,04,03,10,8.10
2010,06,04,03,11,8.10
2010,06,04,03,12,8.20
2010,06,04,03,13,8.20
2010,06,04,03,14,8.20
2010,06,04,03,15,8.20
2010,06,04,03,16,8.20
2010,06,04,03,17,8.20
2010,06,04,03,18,8.20
2010,06,04,03,19,8.20
2010,06,04,03,20,8.20
2010,06,04,03,21,8.20
2010,06,04,03,22,8.20
2010,06,04,03,23,8.20
2010,06,04,03,24,8.20
2010,06,04,03,25,8.20
2010,06,04,03,26,8.20
2010,06,04,03,27,8.20
2010,06,04,03,28,8.20
2010,06,04,03,29,8.20
2010,06,04,03,30,8.20
2010,06,04,03,31,8.10
2010,06,04,03,32,8.10
2010,06,04,03,33,8.10
2010,06,04,03,34,8.10
2010,06,04,03,35,8.10
2010,06,04,03,36,8.10
2010,06,04,03,37,8.10
2010,06,04,03,38,8.20
2010,06,04,03,39,8.20
2010,06,04,03,40,8.20
2010,06,04,03,41,8.20
2010,06,04,03,42,8.20
2010,06,04,03,43,8.20
2010,06,04,03,44,8.20
2010,06,04,03,45,8.20
2010,06,04,03,46,8.20
2010,06,04,03,47,8.20
2010,06,04,03,48,8.20
2010,06,04,03,49,8.20
2010,06,04,03,50,8.20
2010,06,04,03,51,8.30
2010,06,04,03,52,8.30
2010,06,04,03,53,8.30
2010,06,04,03,54,8.30
2010,06,04,03,55,8.30
2010,06,04,03,56,8.30
2010,06,04,03,57,8.30
2010,06,04,03,58,8.30
2010,06,04,03,59,8.20
2010,06,04,04,00,8.20
2010,06,04,04,01,8.20
2010,06,04,04,02,8.20
2010,06,04,04,03,8.20
2010,06,04,04,04,8.20
2010,06,04,04,05,8.20
2010,06,04,04,06,8.20
2010,06,04,04,07,8.20
2010,06,04,04,08,8.20
2010,06,04,04,09,8.20
2010,06,04,04,10,8.20
2010,06,04,04,11,8.20
2010,06,04,04,12,8.30
2010,06,04,04,13,8.30
2010,06,04,04,14,8.30
2010,06,04,04,15,8.20
2010,06,04,04,16,8.20
2010,06,04,04,17,8.20
2010,06,04,04,18,8.20
2010,06,04,04,19,8.20
2010,06,04,04,20,8.20
2010,06,04,04,21,8.20
2010,06,04,04,22,8.20
2010,06,04,04,23,8.20
2010,06,04,04,24,8.20
2010,06,04,04,25,8.20
2010,06,04,04,26,8.20
2010,06,04,04,27,8.20
2010,06,04,04,28,8.20
2010,06,04,04,29,8.20
2010,06,04,04,30,8.20
2010,06,04,04,31,8.20
2010,06,04,04,32,8.20
2010,06,04,04,33,8.20
2010,06,04,04,34,8.20
2010,06,04,04,35,8.20
2010,06,04,04,36,8.20
2010,06,04,04,37,8.30
2010,06,04,04,38,8.30
2010,06,04,04,39,8.30
2010,06,04,04,40,8.30
2010,06,04,04,41,8.30
2010,06,04,04,42,8.30
2010,06,04,04,43,8.30
2010,06,04,04,44,8.30
2010,06,04,04,45,8.30
2010,06,04,04,46,8.30
2010,06,04,04,47,8.30
2010,06,04,04,48,8.30
2010,06,04,04,49,8.20
2010,06,04,04,50,8.20
2010,06,04,04,51,8.20
2010,06,04,04,52,8.20
2010,06,04,04,53,8.20
2010,06,04,04,54,8.20
2010,06,04,04,55,8.20
2010,06,04,04,56,8.20
2010,06,04,04,57,8.20
2010,06,04,04,58,8.20
2010,06,04,04,59,8.20
2010,06,04,05,00,8.20
2010,06,04,05,01,8.20
2010,06,04,05,02,8.20
2010,06,04,05,03,8.20
2010,06,04,05,04,8.20
2010,06,04,05,05,8.20
2010,06,04,05,06,8.30
2010,06,04,05,07,8.30
2010,06,04,05,08,8.30
2010,06,04,05,09,8.30
2010,06,04,05,10,8.30
2010,06,04,05,11,8.20
2010,06,04,05,12,8.20
2010,06,04,05,13,8.20
2010,06,04,05,14,8.20
2010,06,04,05,15,8.20
2010,06,04,05,16,8.20
2010,06,04,05,17,8.20
2010,06,04,05,18,8.20
2010,06,04,05,19,8.20
2010,06,04,05,20,8.20
2010,06,04,05,21,8.20
2010,06,04,05,22,8.20
2010,06,04,05,23,8.20
2010,06,04,05,24,8.20
2010,06,04,05,25,8.20
2010,06,04,05,26,8.20
2010,06,04,05,27,8.20
2010,06,04,05,28,8.20
2010,06,04,05,29,8.20
2010,06,04,05,30,8.20
2010,06,04,05,31,8.20
2010,06,04,05,32,8.20
2010,06,04,05,33,8.20
2010,06,04,05,34,8.20
2010,06,04,05,35,8.20
2010,06,04,05,36,8.20
2010,06,04,05,37,8.20
2010,06,04,05,38,8.20
2010,06,04,05,39,8.20
2010,06,04,05,40,8.20
2010,06,04,05,41,8.20
2010,06,04,05,42,8.20
2010,06,04,05,43,8.20
2010,06,04,05,44,8.20
2010,06,04,05,45,8.20
2010,06,04,05,46,8.20
2010,06,04,05,47,8.20
2010,06,04,05,48,8.20
2010,06,04,05,49,8.20
2010,06,04,05,50,8.20
2010,06,04,05,51,8.20
2010,06,04,05,52,8.20
2010,06,04,05,53,8.20
2010,06,04,05,54,8.20
2010,06,04,05,55,8.20
2010,06,04,05,56,8.20
2010,06,04,05,57,8.20
2010,06,04,05,58,8.20
2010,06,04,05,59,8.20
2010,06,04,06,00,8.20
2010,06,04,06,01,8.20
2010,06,04,06,02,8.20
2010,06,04,06,03,8.20
2010,06,04,06,04,8.20
2010,06,04,06,05,8.20
2010,06,04,06,06,8.20
2010,06,04,06,07,8.20
2010,06,04,06,08,8.20
2010,06,04,06,09,8.20
2010,06,04,06,10,8.20
2010,06,04,06,11,8.20
2010,06,04,06,12,8.20
2010,06,04,06,13,8.20
2010,06,04,06,14,8.20
2010,06,04,06,15,8.20
2010,06,04,06,16,8.30
2010,06,04,06,17,8.30
2010,06,04,06,18,8.30
2010,06,04,06,19,8.30
2010,06,04,06,20,8.30
2010,06,04,06,21,8.30
2010,06,04,06,22,8.30
2010,06,04,06,23,8.30
2010,06,04,06,24,8.30
2010,06,04,06,25,8.30
2010,06,04,06,26,8.30
2010,06,04,06,27,8.30
2010,06,04,06,28,8.30
2010,06,04,06,29,8.30
2010,06,04,06,30,8.40
2010,06,04,06,31,8.40
2010,06,04,06,32,8.40
2010,06,04,06,33,8.40
2010,06,04,06,34,8.40
2010,06,04,06,35,8.40
2010,06,04,06,36,8.40
2010,06,04,06,37,8.40
2010,06,04,06,38,8.40
2010,06,04,06,39,8.40
2010,06,04,06,40,8.40
2010,06,04,06,41,8.50
2010,06,04,06,42,8.50
2010,06,04,06,43,8.50
2010,06,04,06,44,8.50
2010,06,04,06,45,8.50
2010,06,04,06,46,8.50
2010,06,04,06,47,8.50
2010,06,04,06,48,8.50
2010,06,04,06,49,8.50
2010,06,04,06,50,8.50
2010,06,04,06,51,8.40
2010,06,04,06,52,8.50
2010,06,04,06,53,8.50
2010,06,04,06,54,8.50
2010,06,04,06,55,8.50
2010,06,04,06,56,8.50
2010,06,04,06,57,8.50
2010,06,04,06,58,8.60
2010,06,04,06,59,8.60
2010,06,04,07,00,8.60
2010,06,04,07,01,8.60
2010,06,04,07,02,8.60
2010,06,04,07,03,8.60
2010,06,04,07,04,8.60
2010,06,04,07,05,8.60
2010,06,04,07,06,8.60
2010,06,04,07,07,8.60
2010,06,04,07,08,8.60
2010,06,04,07,09,8.60
2010,06,04,07,10,8.60
2010,06,04,07,11,8.70
2010,06,04,07,12,8.70
2010,06,04,07,13,8.70
2010,06,04,07,14,8.80
2010,06,04,07,15,8.80
2010,06,04,07,16,8.80
2010,06,04,07,17,8.80
2010,06,04,07,18,8.80
2010,06,04,07,19,8.80
2010,06,04,07,20,8.80
2010,06,04,07,21,8.80
2010,06,04,07,22,8.80
2010,06,04,07,23,8.80
2010,06,04,07,24,8.80
2010,06,04,07,25,8.80
2010,06,04,07,26,8.80
2010,06,04,07,27,8.80
2010,06,04,07,28,8.80
2010,06,04,07,29,8.80
2010,06,04,07,30,8.80
2010,06,04,07,31,8.80
2010,06,04,07,32,8.80
2010,06,04,07,33,8.80
2010,06,04,07,34,8.80
2010,06,04,07,35,8.90
2010,06,04,07,36,8.90
2010,06,04,07,37,8.90
2010,06,04,07,38,8.90
2010,06,04,07,39,8.90
2010,06,04,07,40,8.90
2010,06,04,07,41,9.00
2010,06,04,07,42,9.00
2010,06,04,07,43,9.10
2010,06,04,07,44,9.10
2010,06,04,07,45,9.10
2010,06,04,07,46,9.10
2010,06,04,07,47,9.10
2010,06,04,07,48,9.20
2010,06,04,07,49,9.20
2010,06,04,07,50,9.20
2010,06,04,07,51,9.20
2010,06,04,07,52,9.20
2010,06,04,07,53,9.20
2010,06,04,07,54,9.20
2010,06,04,07,55,9.30
2010,06,04,07,56,9.30
2010,06,04,07,57,9.30
2010,06,04,07,58,9.30
2010,06,04,07,59,9.30
2010,06,04,08,00,9.30
2010,06,04,08,01,9.40
2010,06,04,08,02,9.40
2010,06,04,08,03,9.50
2010,06,04,08,04,9.60
2010,06,04,08,05,9.60
2010,06,04,08,06,9.70
2010,06,04,08,07,9.70
2010,06,04,08,08,9.80
2010,06,04,08,09,9.80
2010,06,04,08,10,9.80
2010,06,04,08,11,9.80
2010,06,04,08,12,9.80
2010,06,04,08,13,9.80
2010,06,04,08,14,9.80
2010,06,04,08,15,9.90
2010,06,04,08,16,9.90
2010,06,04,08,17,10.00
2010,06,04,08,18,10.00
2010,06,04,08,19,9.90
2010,06,04,08,20,10.00
2010,06,04,08,21,10.00
2010,06,04,08,22,10.00
2010,06,04,08,23,10.00
2010,06,04,08,24,9.90
2010,06,04,08,25,9.90
2010,06,04,08,26,9.90
2010,06,04,08,27,9.90
2010,06,04,08,28,10.00
2010,06,04,08,29,10.00
2010,06,04,08,30,10.10
2010,06,04,08,31,10.10
2010,06,04,08,32,10.10
2010,06,04,08,33,10.10
2010,06,04,08,34,10.10
2010,06,04,08,35,10.20
2010,06,04,08,36,10.20
2010,06,04,08,37,10.20
2010,06,04,08,38,10.20
2010,06,04,08,39,10.30
2010,06,04,08,40,10.40
2010,06,04,08,41,10.40
2010,06,04,08,42,10.50
2010,06,04,08,43,10.50
2010,06,04,08,44,10.50
2010,06,04,08,45,10.60
2010,06,04,08,46,10.60
2010,06,04,08,47,10.60
2010,06,04,08,48,10.60
2010,06,04,08,49,10.60
2010,06,04,08,50,10.60
2010,06,04,08,51,10.70
2010,06,04,08,52,10.70
2010,06,04,08,53,10.70
2010,06,04,08,54,10.70
2010,06,04,08,55,10.70
2010,06,04,08,56,10.80
2010,06,04,08,57,10.80
2010,06,04,08,58,10.80
2010,06,04,08,59,10.90
2010,06,04,09,00,10.90
2010,06,04,09,01,11.00
2010,06,04,09,02,10.90
2010,06,04,09,03,10.90
2010,06,04,09,04,10.90
2010,06,04,09,05,10.90
2010,06,04,09,06,11.00
2010,06,04,09,07,11.00
2010,06,04,09,08,11.00
2010,06,04,09,09,11.00
2010,06,04,09,10,11.00
2010,06,04,09,11,11.00
2010,06,04,09,12,11.00
2010,06,04,09,13,11.00
2010,06,04,09,14,11.00
2010,06,04,09,15,11.00
2010,06,04,09,16,11.10
2010,06,04,09,17,11.20
2010,06,04,09,18,11.30
2010,06,04,09,19,11.30
2010,06,04,09,20,11.40
2010,06,04,09,21,11.50
2010,06,04,09,22,11.50
2010,06,04,09,23,11.50
2010,06,04,09,24,11.50
2010,06,04,09,25,11.50
2010,06,04,09,26,11.50
2010,06,04,09,27,11.40
2010,06,04,09,28,11.40
2010,06,04,09,29,11.40
2010,06,04,09,30,11.40
2010,06,04,09,31,11.50
2010,06,04,09,32,11.60
2010,06,04,09,33,11.60
2010,06,04,09,34,11.60
2010,06,04,09,35,11.70
2010,06,04,09,36,11.70
2010,06,04,09,37,11.80
2010,06,04,09,38,11.90
2010,06,04,09,39,11.90
2010,06,04,09,40,11.90
2010,06,04,09,41,12.00
2010,06,04,09,42,12.10
2010,06,04,09,43,12.10
2010,06,04,09,44,12.10
2010,06,04,09,45,12.10
2010,06,04,09,46,12.10
2010,06,04,09,47,12.10
2010,06,04,09,48,12.20
2010,06,04,09,49,12.20
2010,06,04,09,50,12.20
2010,06,04,09,51,12.20
2010,06,04,09,52,12.30
2010,06,04,09,53,12.30
2010,06,04,09,54,12.30
2010,06,04,09,55,12.30
2010,06,04,09,56,12.30
2010,06,04,09,57,12.30
2010,06,04,09,58,12.30
2010,06,04,09,59,12.30
2010,06,04,10,00,12.30
2010,06,04,10,01,12.30
2010,06,04,10,02,12.40
2010,06,04,10,03,12.40
2010,06,04,10,04,12.50
2010,06,04,10,05,12.60
2010,06,04,10,06,12.60
2010,06,04,10,07,12.70
2010,06,04,10,08,12.80
2010,06,04,10,09,12.80
2010,06,04,10,10,12.90
2010,06,04,10,11,13.00
2010,06,04,10,12,13.20
2010,06,04,10,13,13.30
2010,06,04,10,14,13.30
2010,06,04,10,15,13.30
2010,06,04,10,16,13.30
2010,06,04,10,17,13.40
2010,06,04,10,18,13.50
2010,06,04,10,19,13.70
2010,06,04,10,20,13.80
2010,06,04,10,21,13.90
2010,06,04,10,22,14.00
2010,06,04,10,23,14.20
2010,06,04,10,24,14.30
2010,06,04,10,25,14.30
2010,06,04,10,26,14.40
2010,06,04,10,27,14.50
2010,06,04,10,28,14.60
2010,06,04,10,29,14.70
2010,06,04,10,30,14.60
2010,06,04,10,31,14.60
2010,06,04,10,32,14.50
2010,06,04,10,33,14.50
2010,06,04,10,34,14.50
2010,06,04,10,35,14.60
2010,06,04,10,36,14.60
2010,06,04,10,37,14.60
2010,06,04,10,38,14.60
2010,06,04,10,39,14.60
2010,06,04,10,40,14.60
2010,06,04,10,41,14.60
2010,06,04,10,42,14.70
2010,06,04,10,43,14.80
2010,06,04,10,44,14.80
2010,06,04,10,45,14.90
2010,06,04,10,46,14.90
2010,06,04,10,47,15.00
2010,06,04,10,48,15.00
2010,06,04,10,49,15.00
2010,06,04,10,50,15.00
2010,06,04,10,51,15.00
2010,06,04,10,52,15.00
2010,06,04,10,53,15.00
2010,06,04,10,54,15.00
2010,06,04,10,55,15.00
2010,06,04,10,56,15.00
2010,06,04,10,57,15.00
2010,06,04,10,58,15.00
2010,06,04,10,59,15.10
2010,06,04,11,00,15.20
2010,06,04,11,01,15.20
2010,06,04,11,02,15.30
2010,06,04,11,03,15.30
2010,06,04,11,04,15.20
2010,06,04,11,05,15.20
2010,06,04,11,06,15.30
2010,06,04,11,07,15.30
2010,06,04,11,08,15.20
2010,06,04,11,09,15.30
2010,06,04,11,10,15.40
2010,06,04,11,11,15.40
2010,06,04,11,12,15.50
2010,06,04,11,13,15.50
2010,06,04,11,14,15.60
2010,06,04,11,15,15.60
2010,06,04,11,16,15.60
2010,06,04,11,17,15.50
2010,06,04,11,18,15.40
2010,06,04,11,19,15.30
2010,06,04,11,20,15.20
2010,06,04,11,21,15.30
2010,06,04,11,22,15.30
2010,06,04,11,23,15.40
2010,06,04,11,24,15.40
2010,06,04,11,25,15.40
2010,06,04,11,26,15.40
2010,06,04,11,27,15.40
2010,06,04,11,28,15.30
2010,06,04,11,29,15.40
2010,06,04,11,30,15.40
2010,06,04,11,31,15.40
2010,06,04,11,32,15.50
2010,06,04,11,33,15.60
2010,06,04,11,34,15.70
2010,06,04,11,35,15.70
2010,06,04,11,36,15.70
2010,06,04,11,37,15.70
2010,06,04,11,38,15.50
2010,06,04,11,39,15.50
2010,06,04,11,40,15.40
2010,06,04,11,41,15.40
2010,06,04,11,42,15.40
2010,06,04,11,43,15.30
2010,06,04,11,44,15.30
2010,06,04,11,45,15.30
2010,06,04,11,46,15.30
2010,06,04,11,47,15.30
2010,06,04,11,48,15.30
2010,06,04,11,49,15.30
2010,06,04,11,50,15.20
2010,06,04,11,51,15.20
2010,06,04,11,52,15.10
2010,06,04,11,53,15.10
2010,06,04,11,54,15.00
2010,06,04,11,55,15.00
2010,06,04,11,56,15.00
2010,06,04,11,57,15.00
2010,06,04,11,58,15.00
2010,06,04,11,59,15.00
2010,06,04,12,00,15.00
2010,06,04,12,01,15.00
2010,06,04,12,02,15.10
2010,06,04,12,03,15.30
2010,06,04,12,04,15.40
2010,06,04,12,05,15.40
2010,06,04,12,06,15.50
2010,06,04,12,07,15.60
2010,06,04,12,08,15.60
2010,06,04,12,09,15.60
2010,06,04,12,10,15.60
2010,06,04,12,11,15.50
2010,06,04,12,12,15.50
2010,06,04,12,13,15.60
2010,06,04,12,14,15.60
2010,06,04,12,15,15.70
2010,06,04,12,16,15.70
2010,06,04,12,17,15.70
2010,06,04,12,18,15.70
2010,06,04,12,19,15.70
2010,06,04,12,20,15.70
2010,06,04,12,21,15.80
2010,06,04,12,22,15.80
2010,06,04,12,23,15.80
2010,06,04,12,24,15.80
2010,06,04,12,25,15.80
2010,06,04,12,26,15.80
2010,06,04,12,27,15.80
2010,06,04,12,28,15.80
2010,06,04,12,29,15.70
2010,06,04,12,30,15.70
2010,06,04,12,31,15.60
2010,06,04,12,32,15.40
2010,06,04,12,33,15.30
2010,06,04,12,34,15.20
2010,06,04,12,35,15.10
2010,06,04,12,36,15.00
2010,06,04,12,37,15.00
2010,06,04,12,38,15.00
2010,06,04,12,39,15.00
2010,06,04,12,40,15.00
2010,06,04,12,41,15.00
2010,06,04,12,42,15.00
2010,06,04,12,43,15.00
2010,06,04,12,44,15.00
2010,06,04,12,45,15.00
2010,06,04,12,46,15.20
2010,06,04,12,47,15.40
2010,06,04,12,48,15.50
2010,06,04,12,49,15.70
2010,06,04,12,50,15.70
2010,06,04,12,51,15.80
2010,06,04,12,52,15.80
2010,06,04,12,53,15.80
2010,06,04,12,54,15.80
2010,06,04,12,55,15.80
2010,06,04,12,56,15.70
2010,06,04,12,57,15.70
2010,06,04,12,58,15.70
2010,06,04,12,59,15.70
2010,06,04,13,00,15.70
2010,06,04,13,01,15.70
2010,06,04,13,02,15.70
2010,06,04,13,03,15.60
2010,06,04,13,04,15.60
2010,06,04,13,05,15.50
2010,06,04,13,06,15.40
2010,06,04,13,07,15.40
2010,06,04,13,08,15.30
2010,06,04,13,09,15.20
2010,06,04,13,10,15.20
2010,06,04,13,11,15.00
2010,06,04,13,12,15.00
2010,06,04,13,13,15.00
2010,06,04,13,14,15.00
2010,06,04,13,15,15.00
2010,06,04,13,16,15.00
2010,06,04,13,17,15.00
2010,06,04,13,18,15.00
2010,06,04,13,19,15.20
2010,06,04,13,20,15.30
2010,06,04,13,21,15.50
2010,06,04,13,22,15.60
2010,06,04,13,23,15.70
2010,06,04,13,24,15.70
2010,06,04,13,25,15.80
2010,06,04,13,26,15.90
2010,06,04,13,27,16.00
2010,06,04,13,28,16.10
2010,06,04,13,29,16.30
2010,06,04,13,30,16.30
2010,06,04,13,31,16.30
2010,06,04,13,32,16.20
2010,06,04,13,33,16.20
2010,06,04,13,34,16.20
2010,06,04,13,35,16.20
2010,06,04,13,36,16.10
2010,06,04,13,37,16.00
2010,06,04,13,38,16.00
2010,06,04,13,39,15.90
2010,06,04,13,40,15.80
2010,06,04,13,41,15.80
2010,06,04,13,42,15.70
2010,06,04,13,43,15.60
2010,06,04,13,44,15.40
2010,06,04,13,45,15.30
2010,06,04,13,46,15.20
2010,06,04,13,47,15.20
2010,06,04,13,48,15.20
2010,06,04,13,49,15.20
2010,06,04,13,50,15.20
2010,06,04,13,51,15.10
2010,06,04,13,52,15.00
2010,06,04,13,53,15.00
2010,06,04,13,54,15.00
2010,06,04,13,55,15.00
2010,06,04,13,56,15.00
2010,06,04,13,57,15.00
2010,06,04,13,58,15.00
2010,06,04,13,59,15.00
2010,06,04,14,00,15.00
2010,06,04,14,01,15.00
2010,06,04,14,02,15.00
2010,06,04,14,03,15.00
2010,06,04,14,04,15.00
2010,06,04,14,05,15.00
2010,06,04,14,06,15.10
2010,06,04,14,07,15.30
2010,06,04,14,08,15.40
2010,06,04,14,09,15.60
2010,06,04,14,10,15.80
2010,06,04,14,11,15.90
2010,06,04,14,12,16.10
2010,06,04,14,13,16.30
2010,06,04,14,14,16.40
2010,06,04,14,15,16.50
2010,06,04,14,16,16.50
2010,06,04,14,17,16.60
2010,06,04,14,18,16.60
2010,06,04,14,19,16.60
2010,06,04,14,20,16.60
2010,06,04,14,21,16.60
2010,06,04,14,22,16.50
2010,06,04,14,23,16.40
2010,06,04,14,24,16.40
2010,06,04,14,25,16.30
2010,06,04,14,26,16.30
2010,06,04,14,27,16.20
2010,06,04,14,28,16.20
2010,06,04,14,29,16.20
2010,06,04,14,30,16.20
2010,06,04,14,31,16.20
2010,06,04,14,32,16.10
2010,06,04,14,33,16.00
2010,06,04,14,34,15.90
2010,06,04,14,35,15.80
2010,06,04,14,36,15.70
2010,06,04,14,37,15.70
2010,06,04,14,38,15.70
2010,06,04,14,39,15.60
2010,06,04,14,40,15.50
2010,06,04,14,41,15.40
2010,06,04,14,42,15.40
2010,06,04,14,43,15.30
2010,06,04,14,44,15.30
2010,06,04,14,45,15.30
2010,06,04,14,46,15.40
2010,06,04,14,47,15.40
2010,06,04,14,48,15.40
2010,06,04,14,49,15.40
2010,06,04,14,50,15.50
2010,06,04,14,51,15.60
2010,06,04,14,52,15.70
2010,06,04,14,53,15.80
2010,06,04,14,54,15.90
2010,06,04,14,55,16.00
2010,06,04,14,56,16.10
2010,06,04,14,57,16.30
2010,06,04,14,58,16.30
2010,06,04,14,59,16.30
2010,06,04,15,00,16.40
2010,06,04,15,01,16.40
2010,06,04,15,02,16.30
2010,06,04,15,03,16.30
2010,06,04,15,04,16.30
2010,06,04,15,05,16.30
2010,06,04,15,06,16.30
2010,06,04,15,07,16.30
2010,06,04,15,08,16.40
2010,06,04,15,09,16.40
2010,06,04,15,10,16.40
2010,06,04,15,11,16.50
2010,06,04,15,12,16.60
2010,06,04,15,13,16.50
2010,06,04,15,14,16.40
2010,06,04,15,15,16.40
2010,06,04,15,16,16.40
2010,06,04,15,17,16.40
2010,06,04,15,18,16.30
2010,06,04,15,19,16.20
2010,06,04,15,20,16.20
2010,06,04,15,21,16.20
2010,06,04,15,22,16.20
2010,06,04,15,23,16.20
2010,06,04,15,24,16.20
2010,06,04,15,25,16.20
2010,06,04,15,26,16.20
2010,06,04,15,27,16.20
2010,06,04,15,28,16.10
2010,06,04,15,29,16.10
2010,06,04,15,30,16.10
2010,06,04,15,31,16.10
2010,06,04,15,32,16.20
2010,06,04,15,33,16.20
2010,06,04,15,34,16.30
2010,06,04,15,35,16.40
2010,06,04,15,36,16.50
2010,06,04,15,37,16.60
2010,06,04,15,38,16.80
2010,06,04,15,39,16.90
2010,06,04,15,40,17.00
2010,06,04,15,41,17.00
2010,06,04,15,42,17.00
2010,06,04,15,43,17.00
2010,06,04,15,44,16.90
2010,06,04,15,45,16.80
2010,06,04,15,46,16.80
2010,06,04,15,47,16.70
2010,06,04,15,48,16.70
2010,06,04,15,49,16.80
2010,06,04,15,50,16.90
2010,06,04,15,51,16.90
2010,06,04,15,52,17.10
2010,06,04,15,53,17.10
2010,06,04,15,54,17.20
2010,06,04,15,55,17.30
2010,06,04,15,56,17.30
2010,06,04,15,57,17.30
2010,06,04,15,58,17.30
2010,06,04,15,59,17.40
2010,06,04,16,00,17.40
2010,06,04,16,01,17.40
2010,06,04,16,02,17.50
2010,06,04,16,03,17.60
2010,06,04,16,04,17.60
2010,06,04,16,05,17.60
2010,06,04,16,06,17.70
2010,06,04,16,07,17.80
2010,06,04,16,08,18.00
2010,06,04,16,09,18.10
2010,06,04,16,10,18.20
2010,06,04,16,11,18.30
2010,06,04,16,12,18.40
2010,06,04,16,13,18.40
2010,06,04,16,14,18.40
2010,06,04,16,15,18.40
2010,06,04,16,16,18.40
2010,06,04,16,17,18.50
2010,06,04,16,18,18.60
2010,06,04,16,19,18.70
2010,06,04,16,20,18.70
2010,06,04,16,21,18.70
2010,06,04,16,22,18.80
2010,06,04,16,23,18.80
2010,06,04,16,24,18.90
2010,06,04,16,25,18.90
2010,06,04,16,26,18.80
2010,06,04,16,27,18.80
2010,06,04,16,28,18.80
2010,06,04,16,29,18.80
2010,06,04,16,30,18.80
2010,06,04,16,31,18.80
2010,06,04,16,32,18.60
2010,06,04,16,33,18.50
2010,06,04,16,34,18.40
2010,06,04,16,35,18.40
2010,06,04,16,36,18.40
2010,06,04,16,37,18.40
2010,06,04,16,38,18.40
2010,06,04,16,39,18.30
2010,06,04,16,40,18.30
2010,06,04,16,41,18.30
2010,06,04,16,42,18.40
2010,06,04,16,43,18.40
2010,06,04,16,44,18.40
2010,06,04,16,45,18.40
2010,06,04,16,46,18.30
2010,06,04,16,47,18.20
2010,06,04,16,48,18.10
2010,06,04,16,49,17.90
2010,06,04,16,50,17.80
2010,06,04,16,51,17.70
2010,06,04,16,52,17.60
2010,06,04,16,53,17.60
2010,06,04,16,54,17.60
2010,06,04,16,55,17.60
2010,06,04,16,56,17.50
2010,06,04,16,57,17.40
2010,06,04,16,58,17.40
2010,06,04,16,59,17.30
2010,06,04,17,00,17.20
2010,06,04,17,01,17.00
2010,06,04,17,02,16.80
2010,06,04,17,03,16.70
2010,06,04,17,04,16.60
2010,06,04,17,05,16.60
2010,06,04,17,06,16.60
2010,06,04,17,07,16.60
2010,06,04,17,08,16.70
2010,06,04,17,09,16.90
2010,06,04,17,10,17.00
2010,06,04,17,11,17.10
2010,06,04,17,12,17.10
2010,06,04,17,13,17.10
2010,06,04,17,14,17.00
2010,06,04,17,15,16.90
2010,06,04,17,16,16.90
2010,06,04,17,17,16.90
2010,06,04,17,18,16.90
2010,06,04,17,19,16.90
2010,06,04,17,20,16.90
2010,06,04,17,21,16.90
2010,06,04,17,22,16.80
2010,06,04,17,23,16.80
2010,06,04,17,24,16.80
2010,06,04,17,25,16.70
2010,06,04,17,26,16.70
2010,06,04,17,27,16.60
2010,06,04,17,28,16.60
2010,06,04,17,29,16.60
2010,06,04,17,30,16.60
2010,06,04,17,31,16.50
2010,06,04,17,32,16.50
2010,06,04,17,33,16.50
2010,06,04,17,34,16.50
2010,06,04,17,35,16.60
2010,06,04,17,36,16.50
2010,06,04,17,37,16.60
2010,06,04,17,38,16.60
2010,06,04,17,39,16.70
2010,06,04,17,40,16.70
2010,06,04,17,41,16.80